Clarksburg, WV

2:43 AM EDT on October 23, 2019 (GMT -0400)
Benedum

Weather History for KCKB - August, 2019

Change the Weather History Date:

Wednesday, August 7, 2019

  Actual Average Record
Temperature  
Mean Temperature 75 °F -  
Max Temperature 84 °F 82 °F 97 °F (1931)
Min Temperature 68 °F 60 °F 47 °F (1957)
Cooling Degree Days 10    
Growing Degree Days 25 (Base 50)    
Moisture  
Dew Point 65 °F    
Average Humidity 78    
Maximum Humidity 90    
Minimum Humidity 52    
Precipitation  
Precipitation 1.12 in - - ()
Sea Level Pressure  
Sea Level Pressure 29.85 in    
Wind  
Wind Speed 4 mph ()    
Max Wind Speed 10 mph    
Max Gust Speed -    
Visibility 7.2 miles    
Events Rain , Thunderstorm    
Averages and records for this station are not official NWS values.
T = Trace of Precipitation, MM = Missing Value Source: Averaged Metar Reports

Daily Weather History Graph

Daily Weather History Graph

Search for Another Location

Airport or City:

Astronomy

Aug. 07, 2019 Rise Set
Actual Time 6:26 AM EDT 8:26 PM EDT
Civil Twilight 5:56 AM EDT 8:55 PM EDT
Nautical Twilight 5:20 AM EDT 9:31 PM EDT
Astronomical Twilight 4:42 AM EDT 10:10 PM EDT
Moon 1:53 PM EDT (8/7) 12:14 AM EDT (8/7)
Length of Visible Light 14h 59m
Length of Day
14h 00m
Waxing Crescent, 49% of the Moon is Illuminated
Aug 7
Waxing Crescent
Aug 7
First Quarter
Aug 15
Full
Aug 23
Last Quarter
Aug 30
New

Hourly Weather History & Observations

Time (EDT) Temp. Heat Index Dew Point Humidity Pressure Visibility Wind Dir Wind Speed Gust Speed Precip Events Conditions
12:53 AM 70.0 °F - 64.0 °F 81% 29.80 in 10.0 mi South 3.5 mph - N/A   Scattered Clouds
1:53 AM 71.1 °F - 64.9 °F 81% 29.81 in 9.0 mi NNW 8.1 mph - N/A   Mostly Cloudy
2:53 AM 70.0 °F - 64.9 °F 84% 29.81 in 10.0 mi ENE 3.5 mph - 0.01 in   Mostly Cloudy
3:29 AM 69.1 °F - 64.9 °F 87% 29.86 in 9.0 mi ENE 4.6 mph - N/A Thunderstorm Overcast
3:46 AM 70.0 °F - 64.9 °F 84% 29.87 in 2.5 mi NW 4.6 mph - 0.04 in Thunderstorm Unknown
3:53 AM 70.0 °F - 64.9 °F 84% 29.81 in 3.0 mi Variable 5.8 mph - 0.05 in Thunderstorm Unknown
4:12 AM 70.0 °F - 64.9 °F 84% 29.85 in 10.0 mi East 5.8 mph - 0.01 in Thunderstorm Overcast
4:37 AM 70.0 °F - 66.0 °F 87% 29.87 in 2.5 mi SW 9.2 mph - 0.11 in Thunderstorm Overcast
4:40 AM 70.0 °F - 64.9 °F 84% 29.86 in 1.2 mi SW 8.1 mph - 0.22 in Thunderstorm Unknown
4:45 AM 69.1 °F - 66.0 °F 90% 29.87 in 0.8 mi Calm Calm - 0.32 in Thunderstorm Overcast
4:49 AM 69.8 °F - 64.4 °F 83% 29.87 in 1.0 mi Variable 4.6 mph - 0.39 in Thunderstorm Overcast
4:53 AM 68.0 °F - 64.0 °F 87% 29.81 in 1.0 mi Calm Calm - 0.49 in Thunderstorm Overcast
5:12 AM 68.0 °F - 63.0 °F 84% 29.87 in 1.5 mi South 9.2 mph - 0.16 in Thunderstorm Haze
5:21 AM 68.0 °F - 64.0 °F 87% 29.87 in 3.0 mi Calm Calm - 0.19 in Thunderstorm Overcast
5:39 AM 68.0 °F - 64.0 °F 87% 29.88 in 6.0 mi Calm Calm - 0.20 in Thunderstorm Overcast
5:50 AM 68.0 °F - 64.4 °F 88% 29.89 in 3.0 mi South 4.6 mph - 0.24 in Thunderstorm Overcast
5:53 AM 68.0 °F - 64.0 °F 87% 29.83 in 3.0 mi South 3.5 mph - 0.25 in Thunderstorm Overcast
6:08 AM 68.0 °F - 64.9 °F 90% 29.88 in 6.0 mi SE 3.5 mph - 0.02 in   Overcast
6:53 AM 69.1 °F - 64.0 °F 84% 29.83 in 10.0 mi SE 9.2 mph - 0.04 in   Overcast
7:53 AM 69.1 °F - 64.0 °F 84% 29.86 in 10.0 mi SW 5.8 mph - N/A   Overcast
8:53 AM 68.0 °F - 63.0 °F 84% 29.88 in 4.0 mi South 6.9 mph - 0.14 in Rain Rain
9:53 AM 68.0 °F - 64.0 °F 87% 29.86 in 3.0 mi SW 5.8 mph - 0.08 in Rain Rain
10:53 AM 72.0 °F - 64.9 °F 78% 29.85 in 10.0 mi WSW 10.4 mph - 0.00 in   Mostly Cloudy
11:00 AM 72.0 °F - 66.0 °F 81% 29.89 in 10.0 mi WSW 9.2 mph - N/A   Mostly Cloudy
11:53 AM 73.9 °F - 64.9 °F 73% 29.85 in 10.0 mi SW 9.2 mph - N/A   Mostly Cloudy
12:00 PM 75.0 °F - 64.9 °F 71% 29.89 in 10.0 mi SW 4.6 mph - N/A   Scattered Clouds
12:21 PM 75.9 °F - 66.0 °F 71% 29.89 in 10.0 mi SW 6.9 mph - N/A   Mostly Cloudy
12:53 PM 75.9 °F - 64.0 °F 67% 29.86 in 10.0 mi WSW 8.1 mph - N/A   Mostly Cloudy
1:08 PM 77.0 °F - 64.0 °F 64% 29.90 in 10.0 mi SW 9.2 mph - N/A   Mostly Cloudy
1:53 PM 77.0 °F - 64.0 °F 64% 29.85 in 10.0 mi SW 6.9 mph - N/A   Mostly Cloudy
2:53 PM 79.0 °F - 64.0 °F 60% 29.83 in 10.0 mi West 6.9 mph - N/A   Scattered Clouds
3:53 PM 82.0 °F 83.1 °F 63.0 °F 52% 29.81 in 10.0 mi WSW 9.2 mph - N/A   Scattered Clouds
4:53 PM 81.0 °F 81.9 °F 62.1 °F 52% 29.79 in 10.0 mi WSW 4.6 mph - N/A   Partly Cloudy
5:53 PM 80.1 °F 81.5 °F 63.0 °F 56% 29.79 in 10.0 mi West 6.9 mph - N/A   Partly Cloudy
6:53 PM 82.0 °F 83.8 °F 64.9 °F 56% 29.78 in 10.0 mi Calm Calm - N/A   Partly Cloudy
7:53 PM 78.1 °F - 64.9 °F 64% 29.78 in 10.0 mi Calm Calm - N/A   Partly Cloudy
8:53 PM 73.9 °F - 66.0 °F 76% 29.80 in 10.0 mi Calm Calm - N/A   Clear
9:49 PM 73.4 °F - 66.2 °F 78% 29.86 in 10.0 mi Calm Calm - 0.06 in Rain , Thunderstorm Light Rain
9:53 PM 73.0 °F - 66.0 °F 79% 29.82 in 10.0 mi Calm Calm - 0.06 in Thunderstorm Overcast
10:04 PM 71.1 °F - 66.0 °F 84% 29.86 in 10.0 mi Calm Calm - N/A   Overcast
10:53 PM 71.1 °F - 68.0 °F 90% 29.82 in 9.0 mi Calm Calm - N/A   Scattered Clouds
11:53 PM 69.1 °F - 66.0 °F 90% 29.84 in 6.0 mi Calm Calm - N/A   Scattered Clouds